Starlink 31686

operational
NORAD ID: 59579 Int'l Des: 2024-076 Owner: SPXS Country: US Constellation: starlink
LEOCIRCULAR

About Starlink 31686

Description loading...

Live Position

Loading 3D Globe...

Upcoming Passes

Altitude History

Altitude vs Time

uPlot chart will show altitude changes over time

Two-Line Element Set

1 59579U 24076R 25306.49592419 -.00001459 00000-0 -43498-4 0 9996
2 59579 43.0058 7.0065 0001927 246.6415 113.4234 15.27581992 87059
Epoch: Nov 2, 2025 • Age: 26 hours

Current Status

Altitude 494.3 km
Velocity 7.62 km/s
Sub-Earth Point -40.77°S, 36.93°E
Launch Date Apr 23, 2024
Age 1.5 years
Type internet

Technical Details

Classification Payload
Mass 730.00 kg
Dry Mass 700.00 kg
Total Mass 730.00 kg
Length 0.30 m
Diameter 4.10 m
Span 29.00 m
Shape Box + pan
Manufacturer SPXS
Bus Type Starlink V2M
Phase Status In Orbit
Owner/State SPXS/US

Large Constellations

Loading constellations...